Showing default

BEIDOU 3M13, 43622

Orbit data source: Space-Track

BEIDOU 3M13, 43622 is a payload satellite owned by CNSA (CN) in MEO that was launched on Wed, 19 Sep 2018 UTC via a CHANG ZHENG 3B/YZ-1 launch vehicle from the Xichang Space Center, China (XSC). Payloads include a variety of satellites, spacecraft, and rockets equipped with specific instruments for various scientific and technological missions. These include communications satellites like Starlink; space stations such as the ISS; scientific satellites like the Hubble; Earth observation satellites from companies like Planet Labs, Umbra, and HawkEye 360; GPS; miniature CubeSats for education and research; and military/defense satellites.

Loading next visibility...
BEIDOU 3M13 details
Identifier
43622, 2018-072A
Orbit
MEO
Last TLE update2 days ago
Origin
Flag of CNCNSA (CN / PRC)
ManufacturerCAST
MissionOperational Defense Navigation
Bus & MotorBD-3M/SAR, Unknown motor
Mass1,014 kg wet, ~850 kg dry
Launch date (UTC)
2018-09-19 (6 years ago)
Launch vehicle
CHANG ZHENG 3B/YZ-1
Launch site
Xichang Space Center, China (XSC)
Object type
Payload
Rocket body
Debris
Shape & HBRBox + 2 Pan, 10 m
Radar Cross Section8.984 m², Large (>1 m²)

Expand to show TLE details & history

TLE from 2 days ago
0 BEIDOU 3M13
1 43622U 18072A   24345.39878326 -.00000036  00000-0  00000-0 0  9999
2 43622  56.1394  81.0099 0005716 290.3518  69.5862  1.86230885 42341
Epoch: 2024-12-10T09:34Z
Definitive object data (Epoch: 2024-12-10T09:34:14.873Z)
Latitude-0.00003°
Longitude-142.16245°
Altitude21,522.819 km
Speed3.78 km/s
True Right ascension05h 24m 01s
True Declination0° 00' 00"
Sunlit
Object was in daylight at TLE epoch
Visualization TLE readout
Latitude-45.09345°
Longitude175.59733°
Altitude21,528.352 km
Speed3.781 km/s
Apparent Right ascension03h 30m 44s
Apparent Declination-49° 27' 58"
Sunlit
Object is in daylight
Visualization observer readout
Local Sidereal Time20:32:25
Azimuth127.23° SE
Elevation-37.819°
Doppler factor1
Orbital elements
Apogee altitude21,543.977 km
Perigee altitude21,512.075 km
Semi-major axis27,906.163 km
Eccentricity0.0005716
Inclination56.1394°
RAAN81.0099°
Arg. of periapsis290.3518°
True anomaly69.6476°
Mean anomaly69.5862°
Eccentric anomaly69.6169°
Mean motion0.46558 °/min
BSTARUnknown
Orbital period773.23 mins
Loading maneuver chart data...
Loading historical data...
Loading historical data...
Loading historical data...
Loading historical data...
Loading historical data...
Loading historical data...
Loading historical data...
Other satellites on launch #72 in the year 2018 (2018-09-19 UTC)

BEIDOU 3M13 Visibility forecast

Observer location: undefined°, undefined

Span
Click to sort rows by Start time (UTC) header in descending order
Start Az.
Max El. time (UTC)
Max El. Az.
Max El.
End time (UTC)
End Az.
361 mins2024-12-12 14:42:27.097Z297.627° NW2024-12-12 17:55:27.097Z258.209° W43.961°2024-12-12 20:43:27.097Z187.212° SSW
|